Time,TemperatureF,DewpointF,PressureIn,WindDirection,WindDirectionDegrees,WindSpeedMPH,WindSpeedGustMPH,Humidity,HourlyPrecipIn,Conditions,Clouds,dailyrainin,SoftwareType,DateUTC
2013-02-15 00:00:00,31.9,18.4,24.75,WNW,293,3.0,4.0,57,0.00,,---,0.00,VWS V14.01,2013-02-15 07:00:00,
2013-02-15 00:05:00,31.8,18.7,24.75,WNW,301,4.0,7.0,58,0.00,,---,0.00,VWS V14.01,2013-02-15 07:05:00,
2013-02-15 00:10:00,31.9,18.8,24.75,NW,304,6.0,10.0,58,0.00,,---,0.00,VWS V14.01,2013-02-15 07:10:00,
2013-02-15 00:14:00,32.1,19.0,24.75,WNW,295,4.0,10.0,58,0.00,,---,0.00,VWS V14.01,2013-02-15 07:14:00,
2013-02-15 00:19:00,32.1,18.6,24.75,NW,307,7.0,10.0,57,0.00,,---,0.00,VWS V14.01,2013-02-15 07:19:00,
2013-02-15 00:24:00,31.8,18.3,24.75,WNW,293,3.0,10.0,57,0.00,,---,0.00,VWS V14.01,2013-02-15 07:24:00,
2013-02-15 00:29:00,31.7,18.6,24.75,WNW,301,6.0,6.0,58,0.00,,---,0.00,VWS V14.01,2013-02-15 07:29:00,
2013-02-15 00:34:00,32.0,18.5,24.75,WNW,300,6.0,9.0,57,0.00,,---,0.00,VWS V14.01,2013-02-15 07:34:00,
2013-02-15 00:39:00,32.1,18.6,24.75,WNW,293,6.0,9.0,57,0.00,,---,0.00,VWS V14.01,2013-02-15 07:39:00,
2013-02-15 00:44:00,32.4,18.9,24.75,WNW,294,10.0,11.0,57,0.00,,---,0.00,VWS V14.01,2013-02-15 07:44:00,
2013-02-15 00:49:00,32.4,18.5,24.75,NW,304,9.0,11.0,56,0.00,,---,0.00,VWS V14.01,2013-02-15 07:49:00,
2013-02-15 00:54:00,32.6,18.7,24.75,WNW,295,11.0,11.0,56,0.00,,---,0.00,VWS V14.01,2013-02-15 07:54:00,
2013-02-15 00:59:00,32.9,18.5,24.75,WNW,301,6.0,7.0,55,0.00,,---,0.00,VWS V14.01,2013-02-15 07:59:00,
2013-02-15 01:04:00,32.9,18.5,24.76,WNW,301,7.0,11.0,55,0.00,,---,0.00,VWS V14.01,2013-02-15 08:04:00,
2013-02-15 01:09:00,32.7,18.3,24.76,WNW,283,3.0,11.0,55,0.00,,---,0.00,VWS V14.01,2013-02-15 08:09:00,
2013-02-15 01:14:00,32.4,18.0,24.76,WNW,297,6.0,11.0,55,0.00,,---,0.00,VWS V14.01,2013-02-15 08:14:00,
2013-02-15 01:19:00,32.5,18.1,24.76,WNW,293,6.0,11.0,55,0.00,,---,0.00,VWS V14.01,2013-02-15 08:19:00,
2013-02-15 01:24:00,32.8,18.4,24.76,West,280,9.0,11.0,55,0.00,,---,0.00,VWS V14.01,2013-02-15 08:24:00,
2013-02-15 01:29:00,32.8,18.0,24.76,West,278,8.0,9.0,54,0.00,,---,0.00,VWS V14.01,2013-02-15 08:29:00,
2013-02-15 01:34:00,32.5,18.1,24.76,WNW,286,9.0,10.0,55,0.00,,---,0.00,VWS V14.01,2013-02-15 08:34:00,
2013-02-15 01:39:00,32.7,18.3,24.76,West,277,10.0,12.0,55,0.00,,---,0.00,VWS V14.01,2013-02-15 08:39:00,
2013-02-15 01:44:00,32.8,18.4,24.76,WNW,284,9.0,12.0,55,0.00,,---,0.00,VWS V14.01,2013-02-15 08:44:00,
2013-02-15 01:49:00,32.8,18.0,24.76,West,281,7.0,14.0,54,0.00,,---,0.00,VWS V14.01,2013-02-15 08:49:00,
2013-02-15 01:54:00,32.6,18.2,24.76,WNW,288,8.0,14.0,55,0.00,,---,0.00,VWS V14.01,2013-02-15 08:54:00,
2013-02-15 01:59:00,32.5,18.1,24.76,West,277,6.0,7.0,55,0.00,,---,0.00,VWS V14.01,2013-02-15 08:59:00,
2013-02-15 02:04:00,32.3,18.0,24.76,NW,309,8.0,11.0,55,0.00,,---,0.00,VWS V14.01,2013-02-15 09:04:00,
2013-02-15 02:09:00,31.9,18.0,24.77,West,281,7.0,11.0,56,0.00,,---,0.00,VWS V14.01,2013-02-15 09:09:00,
2013-02-15 02:14:00,31.7,17.8,24.77,WNW,292,7.0,12.0,56,0.00,,---,0.00,VWS V14.01,2013-02-15 09:14:00,
2013-02-15 02:19:00,31.9,18.0,24.77,WNW,284,10.0,12.0,56,0.00,,---,0.00,VWS V14.01,2013-02-15 09:19:00,
2013-02-15 02:24:00,32.0,18.1,24.77,WNW,300,10.0,12.0,56,0.00,,---,0.00,VWS V14.01,2013-02-15 09:24:00,
2013-02-15 02:29:00,31.8,17.9,24.77,WNW,293,8.0,9.0,56,0.00,,---,0.00,VWS V14.01,2013-02-15 09:29:00,
2013-02-15 02:34:00,31.9,18.0,24.77,NW,311,6.0,13.0,56,0.00,,---,0.00,VWS V14.01,2013-02-15 09:34:00,
2013-02-15 02:39:00,31.6,17.3,24.77,WNW,301,4.0,13.0,55,0.00,,---,0.00,VWS V14.01,2013-02-15 09:39:00,
2013-02-15 02:44:00,31.5,17.6,24.77,WNW,295,5.0,13.0,56,0.00,,---,0.00,VWS V14.01,2013-02-15 09:44:00,
2013-02-15 02:49:00,31.0,17.2,24.77,North,358,3.0,13.0,56,0.00,,---,0.00,VWS V14.01,2013-02-15 09:49:00,
2013-02-15 02:54:00,30.6,17.6,24.77,North,4,1.0,13.0,58,0.00,,---,0.00,VWS V14.01,2013-02-15 09:54:00,
2013-02-15 02:59:00,30.6,17.6,24.77,North,359,0.0,0.0,58,0.00,,---,0.00,VWS V14.01,2013-02-15 09:59:00,
2013-02-15 03:04:00,30.7,17.7,24.77,North,359,2.0,3.0,58,0.00,,---,0.00,VWS V14.01,2013-02-15 10:04:00,
2013-02-15 03:09:00,30.8,17.8,24.77,North,350,4.0,4.0,58,0.00,,---,0.00,VWS V14.01,2013-02-15 10:09:00,
2013-02-15 03:14:00,30.8,17.8,24.77,NNW,341,3.0,7.0,58,0.00,,---,0.00,VWS V14.01,2013-02-15 10:14:00,
2013-02-15 03:19:00,30.4,17.4,24.77,NW,314,4.0,7.0,58,0.00,,---,0.00,VWS V14.01,2013-02-15 10:19:00,
2013-02-15 03:24:00,30.6,17.6,24.77,NW,317,3.0,7.0,58,0.00,,---,0.00,VWS V14.01,2013-02-15 10:24:00,
2013-02-15 03:29:00,30.3,17.7,24.77,North,356,1.0,3.0,59,0.00,,---,0.00,VWS V14.01,2013-02-15 10:29:00,
2013-02-15 03:34:00,30.2,17.6,24.77,NW,316,4.0,4.0,59,0.00,,---,0.00,VWS V14.01,2013-02-15 10:34:00,
2013-02-15 03:39:00,30.9,17.9,24.77,WNW,302,11.0,14.0,58,0.00,,---,0.00,VWS V14.01,2013-02-15 10:39:00,
2013-02-15 03:44:00,32.5,18.1,24.77,NW,308,6.0,14.0,55,0.00,,---,0.00,VWS V14.01,2013-02-15 10:44:00,
2013-02-15 03:49:00,32.7,17.5,24.77,NW,307,4.0,14.0,53,0.00,,---,0.00,VWS V14.01,2013-02-15 10:49:00,
2013-02-15 03:54:00,31.8,17.1,24.77,NW,309,4.0,14.0,54,0.00,,---,0.00,VWS V14.01,2013-02-15 10:54:00,
2013-02-15 03:59:00,31.3,17.9,24.77,WNW,294,3.0,4.0,57,0.00,,---,0.00,VWS V14.01,2013-02-15 10:59:00,
2013-02-15 04:04:00,31.0,17.6,24.77,NW,324,2.0,4.0,57,0.00,,---,0.00,VWS V14.01,2013-02-15 11:04:00,
2013-02-15 04:09:00,30.8,18.2,24.77,West,276,3.0,5.0,59,0.00,,---,0.00,VWS V14.01,2013-02-15 11:09:00,
2013-02-15 04:14:00,31.1,18.1,24.77,WSW,240,2.0,6.0,58,0.00,,---,0.00,VWS V14.01,2013-02-15 11:14:00,
2013-02-15 04:19:00,31.0,18.0,24.77,WSW,250,1.0,6.0,58,0.00,,---,0.00,VWS V14.01,2013-02-15 11:19:00,
2013-02-15 04:24:00,30.7,18.1,24.77,WSW,248,4.0,6.0,59,0.00,,---,0.00,VWS V14.01,2013-02-15 11:24:00,
2013-02-15 04:29:00,30.4,18.2,24.77,WSW,257,3.0,3.0,60,0.00,,---,0.00,VWS V14.01,2013-02-15 11:29:00,
2013-02-15 04:34:00,30.1,17.9,24.78,West,276,3.0,4.0,60,0.00,,---,0.00,VWS V14.01,2013-02-15 11:34:00,
2013-02-15 04:39:00,30.1,17.9,24.78,WSW,257,4.0,4.0,60,0.00,,---,0.00,VWS V14.01,2013-02-15 11:39:00,
2013-02-15 04:44:00,30.2,18.0,24.78,West,281,8.0,8.0,60,0.00,,---,0.00,VWS V14.01,2013-02-15 11:44:00,
2013-02-15 04:49:00,30.1,17.9,24.78,West,281,4.0,8.0,60,0.00,,---,0.00,VWS V14.01,2013-02-15 11:49:00,
2013-02-15 04:54:00,29.9,17.7,24.78,WSW,257,3.0,8.0,60,0.00,,---,0.00,VWS V14.01,2013-02-15 11:54:00,
2013-02-15 04:59:00,29.7,17.5,24.78,West,263,4.0,4.0,60,0.00,,---,0.00,VWS V14.01,2013-02-15 11:59:00,
2013-02-15 05:04:00,29.6,17.8,24.78,WSW,254,3.0,6.0,61,0.00,,---,0.00,VWS V14.01,2013-02-15 12:04:00,
2013-02-15 05:09:00,29.6,17.8,24.78,West,269,3.0,6.0,61,0.00,,---,0.00,VWS V14.01,2013-02-15 12:09:00,
2013-02-15 05:14:00,29.3,17.5,24.78,WSW,254,4.0,6.0,61,0.00,,---,0.00,VWS V14.01,2013-02-15 12:14:00,
2013-02-15 05:19:00,29.0,17.2,24.78,West,264,3.0,7.0,61,0.00,,---,0.00,VWS V14.01,2013-02-15 12:19:00,
2013-02-15 05:24:00,28.6,17.2,24.78,WNW,290,3.0,7.0,62,0.00,,---,0.00,VWS V14.01,2013-02-15 12:24:00,
2013-02-15 05:29:00,28.6,17.6,24.78,WNW,284,5.0,6.0,63,0.00,,---,0.00,VWS V14.01,2013-02-15 12:29:00,
2013-02-15 05:34:00,28.8,17.1,24.78,WNW,297,3.0,8.0,61,0.00,,---,0.00,VWS V14.01,2013-02-15 12:34:00,
2013-02-15 05:39:00,28.5,17.1,24.78,WNW,291,1.0,8.0,62,0.00,,---,0.00,VWS V14.01,2013-02-15 12:39:00,
2013-02-15 05:44:00,28.6,17.6,24.78,WNW,283,5.0,8.0,63,0.00,,---,0.00,VWS V14.01,2013-02-15 12:44:00,
2013-02-15 05:49:00,28.9,17.5,24.79,WNW,298,5.0,8.0,62,0.00,,---,0.00,VWS V14.01,2013-02-15 12:49:00,
2013-02-15 05:54:00,28.9,17.9,24.79,WNW,295,4.0,8.0,63,0.00,,---,0.00,VWS V14.01,2013-02-15 12:54:00,
2013-02-15 05:59:00,28.6,17.6,24.79,WNW,295,5.0,5.0,63,0.00,,---,0.00,VWS V14.01,2013-02-15 12:59:00,
2013-02-15 06:04:00,28.4,17.4,24.79,WNW,284,2.0,5.0,63,0.00,,---,0.00,VWS V14.01,2013-02-15 13:04:00,
2013-02-15 06:09:00,28.2,17.2,24.79,WNW,290,2.0,5.0,63,0.00,,---,0.00,VWS V14.01,2013-02-15 13:09:00,
2013-02-15 06:14:00,28.2,17.6,24.79,WNW,285,5.0,8.0,64,0.00,,---,0.00,VWS V14.01,2013-02-15 13:14:00,
2013-02-15 06:19:00,28.6,17.6,24.79,WNW,285,6.0,8.0,63,0.00,,---,0.00,VWS V14.01,2013-02-15 13:19:00,
2013-02-15 06:24:00,28.5,17.5,24.79,WNW,302,3.0,8.0,63,0.00,,---,0.00,VWS V14.01,2013-02-15 13:24:00,
2013-02-15 06:29:00,28.3,17.3,24.79,NW,307,5.0,6.0,63,0.00,,---,0.00,VWS V14.01,2013-02-15 13:29:00,
2013-02-15 06:34:00,28.3,17.3,24.79,NW,304,5.0,8.0,63,0.00,,---,0.00,VWS V14.01,2013-02-15 13:34:00,
2013-02-15 06:39:00,28.3,17.3,24.80,WNW,295,4.0,8.0,63,0.00,,---,0.00,VWS V14.01,2013-02-15 13:39:00,
2013-02-15 06:44:00,27.8,16.9,24.80,NNW,329,1.0,8.0,63,0.00,,---,0.00,VWS V14.01,2013-02-15 13:44:00,
2013-02-15 06:49:00,27.2,16.6,24.80,NW,322,2.0,8.0,64,0.00,,---,0.00,VWS V14.01,2013-02-15 13:49:00,
2013-02-15 06:54:00,27.0,16.8,24.80,NW,322,2.0,8.0,65,0.00,,---,0.00,VWS V14.01,2013-02-15 13:54:00,
2013-02-15 06:59:00,26.4,16.2,24.80,NNW,329,5.0,7.0,65,0.00,,---,0.00,VWS V14.01,2013-02-15 13:59:00,
2013-02-15 07:04:00,26.3,16.9,24.80,NW,321,5.0,7.0,67,0.00,,---,0.00,VWS V14.01,2013-02-15 14:04:00,
2013-02-15 07:09:00,26.2,16.8,24.80,NW,319,6.0,7.0,67,0.00,,---,0.00,VWS V14.01,2013-02-15 14:09:00,
2013-02-15 07:14:00,26.5,16.7,24.80,NW,324,3.0,7.0,66,0.00,,---,0.00,VWS V14.01,2013-02-15 14:14:00,
2013-02-15 07:19:00,26.3,16.9,24.81,NW,324,4.0,7.0,67,0.00,,---,0.00,VWS V14.01,2013-02-15 14:19:00,
2013-02-15 07:24:00,26.3,17.2,24.81,NW,321,4.0,7.0,68,0.00,,---,0.00,VWS V14.01,2013-02-15 14:24:00,
2013-02-15 07:29:00,26.7,17.2,24.81,WNW,293,3.0,3.0,67,0.00,,---,0.00,VWS V14.01,2013-02-15 14:29:00,
2013-02-15 07:34:00,27.0,17.5,24.81,WNW,302,4.0,4.0,67,0.00,,---,0.00,VWS V14.01,2013-02-15 14:34:00,
2013-02-15 07:39:00,27.4,17.5,24.81,WNW,283,3.0,5.0,66,0.00,,---,0.00,VWS V14.01,2013-02-15 14:39:00,
2013-02-15 07:44:00,27.6,17.7,24.81,NW,316,6.0,8.0,66,0.00,,---,0.00,VWS V14.01,2013-02-15 14:44:00,
2013-02-15 07:49:00,27.9,18.0,24.81,NW,313,6.0,8.0,66,0.00,,---,0.00,VWS V14.01,2013-02-15 14:49:00,
2013-02-15 07:54:00,28.2,18.0,24.82,NW,310,7.0,8.0,65,0.00,,---,0.00,VWS V14.01,2013-02-15 14:54:00,
2013-02-15 07:59:00,28.6,18.3,24.82,NW,326,6.0,6.0,65,0.00,,---,0.00,VWS V14.01,2013-02-15 14:59:00,
2013-02-15 08:04:00,28.9,18.3,24.82,NNW,332,2.0,7.0,64,0.00,,---,0.00,VWS V14.01,2013-02-15 15:04:00,
2013-02-15 08:09:00,29.2,18.5,24.82,NNW,341,3.0,7.0,64,0.00,,---,0.00,VWS V14.01,2013-02-15 15:09:00,
2013-02-15 08:14:00,29.6,18.6,24.82,NNW,329,2.0,7.0,63,0.00,,---,0.00,VWS V14.01,2013-02-15 15:14:00,
2013-02-15 08:19:00,30.1,18.7,24.82,North,354,8.0,8.0,62,0.00,,---,0.00,VWS V14.01,2013-02-15 15:19:00,
2013-02-15 08:24:00,30.7,18.9,24.83,NNW,336,4.0,8.0,61,0.00,,---,0.00,VWS V14.01,2013-02-15 15:24:00,
2013-02-15 08:29:00,31.2,19.0,24.83,NNW,337,4.0,4.0,60,0.00,,---,0.00,VWS V14.01,2013-02-15 15:29:00,
2013-02-15 08:34:00,32.3,18.4,24.83,WNW,287,10.0,10.0,56,0.00,,---,0.00,VWS V14.01,2013-02-15 15:34:00,
2013-02-15 08:39:00,33.5,17.3,24.83,NW,311,9.0,13.0,51,0.00,,---,0.00,VWS V14.01,2013-02-15 15:39:00,
2013-02-15 08:44:00,33.9,17.2,24.83,WNW,291,13.0,13.0,50,0.00,,---,0.00,VWS V14.01,2013-02-15 15:44:00,
2013-02-15 08:49:00,34.4,16.8,24.83,NW,311,6.0,14.0,48,0.00,,---,0.00,VWS V14.01,2013-02-15 15:49:00,
2013-02-15 08:54:00,34.4,16.8,24.83,NW,307,13.0,14.0,48,0.00,,---,0.00,VWS V14.01,2013-02-15 15:54:00,
2013-02-15 08:59:00,34.5,16.9,24.84,WNW,294,11.0,12.0,48,0.00,,---,0.00,VWS V14.01,2013-02-15 15:59:00,
2013-02-15 09:04:00,34.4,16.8,24.84,NW,313,16.0,16.0,48,0.00,,---,0.00,VWS V14.01,2013-02-15 16:04:00,
2013-02-15 09:09:00,34.3,16.7,24.84,NNW,328,11.0,16.0,48,0.00,,---,0.00,VWS V14.01,2013-02-15 16:09:00,
2013-02-15 09:14:00,34.4,17.7,24.84,NNW,347,11.0,17.0,50,0.00,,---,0.00,VWS V14.01,2013-02-15 16:14:00,
2013-02-15 09:19:00,34.7,17.5,24.84,NW,323,16.0,18.0,49,0.00,,---,0.00,VWS V14.01,2013-02-15 16:19:00,
2013-02-15 09:24:00,34.7,17.5,24.84,NW,316,13.0,19.0,49,0.00,,---,0.00,VWS V14.01,2013-02-15 16:24:00,
2013-02-15 09:29:00,34.9,17.2,24.85,NW,307,14.0,15.0,48,0.00,,---,0.00,VWS V14.01,2013-02-15 16:29:00,
2013-02-15 09:34:00,35.0,16.8,24.85,NW,316,14.0,20.0,47,0.00,,---,0.00,VWS V14.01,2013-02-15 16:34:00,
2013-02-15 09:39:00,35.5,17.3,24.85,WNW,299,18.0,20.0,47,0.00,,---,0.00,VWS V14.01,2013-02-15 16:39:00,
2013-02-15 09:44:00,35.8,17.1,24.85,NW,316,18.0,20.0,46,0.00,,---,0.00,VWS V14.01,2013-02-15 16:44:00,
2013-02-15 09:49:00,35.7,17.0,24.85,NNW,329,15.0,23.0,46,0.00,,---,0.00,VWS V14.01,2013-02-15 16:49:00,
2013-02-15 09:54:00,36.0,16.7,24.85,NW,323,13.0,23.0,45,0.00,,---,0.00,VWS V14.01,2013-02-15 16:54:00,
2013-02-15 09:59:00,36.0,17.2,24.85,NW,315,14.0,15.0,46,0.00,,---,0.00,VWS V14.01,2013-02-15 16:59:00,
2013-02-15 10:04:00,36.3,17.0,24.85,WNW,297,13.0,24.0,45,0.00,,---,0.00,VWS V14.01,2013-02-15 17:04:00,
2013-02-15 10:09:00,36.8,17.5,24.85,WNW,297,19.0,24.0,45,0.00,,---,0.00,VWS V14.01,2013-02-15 17:09:00,
2013-02-15 10:14:00,37.2,17.3,24.85,WNW,297,19.0,24.0,44,0.00,,---,0.00,VWS V14.01,2013-02-15 17:14:00,
2013-02-15 10:19:00,37.3,17.4,24.85,NW,323,19.0,24.0,44,0.00,,---,0.00,VWS V14.01,2013-02-15 17:19:00,
2013-02-15 10:24:00,37.3,16.9,24.85,NW,311,17.0,25.0,43,0.00,,---,0.00,VWS V14.01,2013-02-15 17:24:00,
2013-02-15 10:29:00,37.5,17.6,24.85,NNW,332,22.0,22.0,44,0.00,,---,0.00,VWS V14.01,2013-02-15 17:29:00,
2013-02-15 10:34:00,37.6,17.7,24.85,NW,308,20.0,24.0,44,0.00,,---,0.00,VWS V14.01,2013-02-15 17:34:00,
2013-02-15 10:39:00,38.0,18.0,24.85,NW,308,16.0,24.0,44,0.00,,---,0.00,VWS V14.01,2013-02-15 17:39:00,
2013-02-15 10:44:00,38.9,17.8,24.85,NW,316,11.0,24.0,42,0.00,,---,0.00,VWS V14.01,2013-02-15 17:44:00,
2013-02-15 10:49:00,38.9,16.6,24.85,WNW,300,10.0,24.0,40,0.00,,---,0.00,VWS V14.01,2013-02-15 17:49:00,
2013-02-15 10:54:00,38.9,17.2,24.85,WNW,301,12.0,25.0,41,0.00,,---,0.00,VWS V14.01,2013-02-15 17:54:00,
2013-02-15 10:59:00,39.0,16.7,24.85,NW,321,15.0,17.0,40,0.00,,---,0.00,VWS V14.01,2013-02-15 17:59:00,
2013-02-15 11:04:00,39.2,16.9,24.85,NW,309,12.0,19.0,40,0.00,,---,0.00,VWS V14.01,2013-02-15 18:04:00,
2013-02-15 11:09:00,39.7,16.8,24.85,NW,315,17.0,19.0,39,0.00,,---,0.00,VWS V14.01,2013-02-15 18:09:00,
2013-02-15 11:14:00,40.2,16.6,24.85,WNW,291,21.0,23.0,38,0.00,,---,0.00,VWS V14.01,2013-02-15 18:14:00,
2013-02-15 11:19:00,39.9,16.4,24.84,NW,320,16.0,23.0,38,0.00,,---,0.00,VWS V14.01,2013-02-15 18:19:00,
2013-02-15 11:24:00,40.1,15.9,24.84,WNW,295,15.0,26.0,37,0.00,,---,0.00,VWS V14.01,2013-02-15 18:24:00,
2013-02-15 11:29:00,40.4,17.4,24.84,WNW,300,17.0,17.0,39,0.00,,---,0.00,VWS V14.01,2013-02-15 18:29:00,
2013-02-15 11:34:00,40.7,17.1,24.85,WNW,300,17.0,22.0,38,0.00,,---,0.00,VWS V14.01,2013-02-15 18:34:00,
2013-02-15 11:39:00,40.8,17.2,24.85,WNW,295,20.0,22.0,38,0.00,,---,0.00,VWS V14.01,2013-02-15 18:39:00,
2013-02-15 11:44:00,40.9,17.3,24.84,NW,322,19.0,23.0,38,0.00,,---,0.00,VWS V14.01,2013-02-15 18:44:00,
2013-02-15 11:49:00,41.0,17.4,24.84,WNW,294,19.0,23.0,38,0.00,,---,0.00,VWS V14.01,2013-02-15 18:49:00,
2013-02-15 11:54:00,40.8,16.6,24.84,NW,306,8.0,23.0,37,0.00,,---,0.00,VWS V14.01,2013-02-15 18:54:00,
2013-02-15 11:59:00,41.4,17.1,24.84,NW,307,19.0,19.0,37,0.00,,---,0.00,VWS V14.01,2013-02-15 18:59:00,
2013-02-15 12:04:00,41.7,16.7,24.84,NW,314,16.0,22.0,36,0.00,,---,0.00,VWS V14.01,2013-02-15 19:04:00,
2013-02-15 12:09:00,41.2,15.6,24.84,NW,319,11.0,22.0,35,0.00,,---,0.00,VWS V14.01,2013-02-15 19:09:00,
2013-02-15 12:14:00,41.7,15.4,24.83,NW,319,16.0,23.0,34,0.00,,---,0.00,VWS V14.01,2013-02-15 19:14:00,
2013-02-15 12:19:00,41.6,15.3,24.83,NW,319,16.0,25.0,34,0.00,,---,0.00,VWS V14.01,2013-02-15 19:19:00,
2013-02-15 12:24:00,41.8,15.5,24.83,NW,312,17.0,25.0,34,0.00,,---,0.00,VWS V14.01,2013-02-15 19:24:00,
2013-02-15 12:29:00,41.7,15.4,24.83,NW,309,16.0,25.0,34,0.00,,---,0.00,VWS V14.01,2013-02-15 19:29:00,
2013-02-15 12:34:00,42.3,15.9,24.83,NW,323,21.0,25.0,34,0.00,,---,0.00,VWS V14.01,2013-02-15 19:34:00,
2013-02-15 12:39:00,42.6,15.5,24.82,NNW,331,19.0,25.0,33,0.00,,---,0.00,VWS V14.01,2013-02-15 19:39:00,
2013-02-15 12:44:00,43.0,15.2,24.82,NW,323,25.0,28.0,32,0.00,,---,0.00,VWS V14.01,2013-02-15 19:44:00,
2013-02-15 12:49:00,43.0,15.2,24.82,WNW,291,15.0,28.0,32,0.00,,---,0.00,VWS V14.01,2013-02-15 19:49:00,
2013-02-15 12:54:00,43.0,15.2,24.82,WNW,297,17.0,29.0,32,0.00,,---,0.00,VWS V14.01,2013-02-15 19:54:00,
2013-02-15 12:59:00,43.5,15.6,24.82,NW,312,21.0,29.0,32,0.00,,---,0.00,VWS V14.01,2013-02-15 19:59:00,
2013-02-15 13:04:00,43.3,14.7,24.82,WNW,299,19.0,27.0,31,0.00,,---,0.00,VWS V14.01,2013-02-15 20:04:00,
2013-02-15 13:09:00,43.5,15.6,24.82,NW,315,22.0,27.0,32,0.00,,---,0.00,VWS V14.01,2013-02-15 20:09:00,
2013-02-15 13:14:00,43.1,15.3,24.81,WNW,291,12.0,27.0,32,0.00,,---,0.00,VWS V14.01,2013-02-15 20:14:00,
2013-02-15 13:19:00,43.3,15.4,24.81,NW,320,14.0,27.0,32,0.00,,---,0.00,VWS V14.01,2013-02-15 20:19:00,
2013-02-15 13:24:00,43.7,15.8,24.81,NW,325,17.0,27.0,32,0.00,,---,0.00,VWS V14.01,2013-02-15 20:24:00,
2013-02-15 13:29:00,43.9,15.2,24.81,NW,317,18.0,27.0,31,0.00,,---,0.00,VWS V14.01,2013-02-15 20:29:00,
2013-02-15 13:34:00,43.8,15.9,24.81,NW,309,16.0,25.0,32,0.00,,---,0.00,VWS V14.01,2013-02-15 20:34:00,
2013-02-15 13:39:00,44.2,16.2,24.81,WNW,283,18.0,25.0,32,0.00,,---,0.00,VWS V14.01,2013-02-15 20:39:00,
2013-02-15 13:44:00,44.3,14.8,24.81,NW,312,18.0,25.0,30,0.00,,---,0.00,VWS V14.01,2013-02-15 20:44:00,
2013-02-15 13:49:00,44.7,15.2,24.81,NW,312,18.0,25.0,30,0.00,,---,0.00,VWS V14.01,2013-02-15 20:49:00,
2013-02-15 13:54:00,45.1,15.5,24.81,NW,310,25.0,25.0,30,0.00,,---,0.00,VWS V14.01,2013-02-15 20:54:00,
2013-02-15 13:59:00,45.3,14.9,24.81,NNW,339,13.0,25.0,29,0.00,,---,0.00,VWS V14.01,2013-02-15 20:59:00,
2013-02-15 14:04:00,44.9,13.8,24.80,NNW,331,17.0,23.0,28,0.00,,---,0.00,VWS V14.01,2013-02-15 21:04:00,
2013-02-15 14:09:00,45.1,14.8,24.81,NW,316,19.0,23.0,29,0.00,,---,0.00,VWS V14.01,2013-02-15 21:09:00,
2013-02-15 14:14:00,45.3,14.9,24.80,NNW,342,16.0,23.0,29,0.00,,---,0.00,VWS V14.01,2013-02-15 21:14:00,
2013-02-15 14:19:00,46.0,15.5,24.80,NNE,13,11.0,23.0,29,0.00,,---,0.00,VWS V14.01,2013-02-15 21:19:00,
2013-02-15 14:24:00,46.5,16.0,24.80,NW,324,15.0,23.0,29,0.00,,---,0.00,VWS V14.01,2013-02-15 21:24:00,
2013-02-15 14:29:00,46.1,14.8,24.80,North,11,16.0,23.0,28,0.00,,---,0.00,VWS V14.01,2013-02-15 21:29:00,
2013-02-15 14:34:00,46.0,15.5,24.80,NNW,343,12.0,20.0,29,0.00,,---,0.00,VWS V14.01,2013-02-15 21:34:00,
2013-02-15 14:39:00,46.8,14.6,24.80,NNW,333,18.0,21.0,27,0.00,,---,0.00,VWS V14.01,2013-02-15 21:39:00,
2013-02-15 14:44:00,46.7,13.6,24.80,NW,307,28.0,28.0,26,0.00,,---,0.00,VWS V14.01,2013-02-15 21:44:00,
2013-02-15 14:49:00,46.5,12.6,24.80,NNW,333,16.0,28.0,25,0.00,,---,0.00,VWS V14.01,2013-02-15 21:49:00,
2013-02-15 14:54:00,46.9,12.0,24.81,NNW,332,22.0,28.0,24,0.00,,---,0.00,VWS V14.01,2013-02-15 21:54:00,
2013-02-15 14:59:00,47.1,13.1,24.81,NW,320,11.0,28.0,25,0.00,,---,0.00,VWS V14.01,2013-02-15 21:59:00,
2013-02-15 15:04:00,47.0,13.0,24.80,North,349,15.0,19.0,25,0.00,,---,0.00,VWS V14.01,2013-02-15 22:04:00,
2013-02-15 15:09:00,46.3,12.4,24.80,NW,324,20.0,22.0,25,0.00,,---,0.00,VWS V14.01,2013-02-15 22:09:00,
2013-02-15 15:14:00,46.3,14.2,24.80,NNW,343,14.0,22.0,27,0.00,,---,0.00,VWS V14.01,2013-02-15 22:14:00,
2013-02-15 15:19:00,46.1,13.1,24.80,NW,318,18.0,22.0,26,0.00,,---,0.00,VWS V14.01,2013-02-15 22:19:00,
2013-02-15 15:24:00,46.4,13.4,24.80,NNW,340,10.0,22.0,26,0.00,,---,0.00,VWS V14.01,2013-02-15 22:24:00,
2013-02-15 15:29:00,46.4,12.5,24.80,NNW,329,17.0,23.0,25,0.00,,---,0.00,VWS V14.01,2013-02-15 22:29:00,
2013-02-15 15:34:00,46.4,13.4,24.80,NW,321,11.0,20.0,26,0.00,,---,0.00,VWS V14.01,2013-02-15 22:34:00,
2013-02-15 15:39:00,46.7,12.8,24.81,WNW,303,13.0,20.0,25,0.00,,---,0.00,VWS V14.01,2013-02-15 22:39:00,
2013-02-15 15:44:00,46.2,14.1,24.81,NW,304,9.0,20.0,27,0.00,,---,0.00,VWS V14.01,2013-02-15 22:44:00,
2013-02-15 15:49:00,46.3,13.3,24.81,NW,322,18.0,23.0,26,0.00,,---,0.00,VWS V14.01,2013-02-15 22:49:00,
2013-02-15 15:54:00,46.4,15.1,24.81,NNE,13,13.0,23.0,28,0.00,,---,0.00,VWS V14.01,2013-02-15 22:54:00,
2013-02-15 15:59:00,46.6,13.6,24.80,NW,306,17.0,23.0,26,0.00,,---,0.00,VWS V14.01,2013-02-15 22:59:00,
2013-02-15 16:04:00,46.6,10.8,24.80,NNW,329,23.0,27.0,23,0.00,,---,0.00,VWS V14.01,2013-02-15 23:04:00,
2013-02-15 16:09:00,46.0,10.3,24.80,NW,312,16.0,27.0,23,0.00,,---,0.00,VWS V14.01,2013-02-15 23:09:00,
2013-02-15 16:14:00,46.0,10.3,24.80,WNW,295,20.0,27.0,23,0.00,,---,0.00,VWS V14.01,2013-02-15 23:14:00,
2013-02-15 16:19:00,46.0,10.3,24.80,WNW,294,15.0,27.0,23,0.00,,---,0.00,VWS V14.01,2013-02-15 23:19:00,
2013-02-15 16:24:00,46.1,9.4,24.80,NW,307,19.0,27.0,22,0.00,,---,0.00,VWS V14.01,2013-02-15 23:24:00,
2013-02-15 16:29:00,46.1,10.4,24.80,NW,320,19.0,27.0,23,0.00,,---,0.00,VWS V14.01,2013-02-15 23:29:00,
2013-02-15 16:34:00,46.2,10.5,24.80,WNW,302,18.0,22.0,23,0.00,,---,0.00,VWS V14.01,2013-02-15 23:34:00,
2013-02-15 16:39:00,46.1,10.4,24.80,WNW,291,17.0,23.0,23,0.00,,---,0.00,VWS V14.01,2013-02-15 23:39:00,
2013-02-15 16:44:00,46.0,10.3,24.81,NW,314,18.0,26.0,23,0.00,,---,0.00,VWS V14.01,2013-02-15 23:44:00,
2013-02-15 16:49:00,45.8,10.1,24.81,NW,318,20.0,26.0,23,0.00,,---,0.00,VWS V14.01,2013-02-15 23:49:00,
2013-02-15 16:54:00,45.7,10.0,24.80,NW,321,15.0,26.0,23,0.00,,---,0.00,VWS V14.01,2013-02-15 23:54:00,
2013-02-15 16:59:00,45.6,9.9,24.81,NW,323,16.0,26.0,23,0.00,,---,0.00,VWS V14.01,2013-02-15 23:59:00,
2013-02-15 17:04:00,45.3,9.7,24.81,NNW,328,14.0,22.0,23,0.00,,---,0.00,VWS V14.01,2013-02-16 00:04:00,
2013-02-15 17:09:00,45.2,9.6,24.81,NNW,330,16.0,22.0,23,0.00,,---,0.00,VWS V14.01,2013-02-16 00:09:00,
2013-02-15 17:14:00,45.1,10.5,24.81,NNW,330,14.0,22.0,24,0.00,,---,0.00,VWS V14.01,2013-02-16 00:14:00,
2013-02-15 17:19:00,44.9,10.3,24.81,NW,319,16.0,22.0,24,0.00,,---,0.00,VWS V14.01,2013-02-16 00:19:00,
2013-02-15 17:24:00,44.7,10.1,24.81,NW,311,16.0,22.0,24,0.00,,---,0.00,VWS V14.01,2013-02-16 00:24:00,
2013-02-15 17:29:00,44.4,9.9,24.81,WNW,297,15.0,22.0,24,0.00,,---,0.00,VWS V14.01,2013-02-16 00:29:00,
2013-02-15 17:34:00,44.0,9.5,24.81,WNW,284,14.0,24.0,24,0.00,,---,0.00,VWS V14.01,2013-02-16 00:34:00,
2013-02-15 17:39:00,43.7,10.2,24.81,WNW,291,16.0,24.0,25,0.00,,---,0.00,VWS V14.01,2013-02-16 00:39:00,
2013-02-15 17:44:00,43.4,9.9,24.81,WNW,295,24.0,24.0,25,0.00,,---,0.00,VWS V14.01,2013-02-16 00:44:00,
2013-02-15 17:49:00,42.9,10.4,24.81,WNW,295,15.0,24.0,26,0.00,,---,0.00,VWS V14.01,2013-02-16 00:49:00,
2013-02-15 17:54:00,42.7,10.2,24.81,WNW,289,13.0,24.0,26,0.00,,---,0.00,VWS V14.01,2013-02-16 00:54:00,
2013-02-15 17:59:00,42.3,10.7,24.82,NW,304,15.0,25.0,27,0.00,,---,0.00,VWS V14.01,2013-02-16 00:59:00,
2013-02-15 18:04:00,42.1,10.6,24.82,West,271,11.0,22.0,27,0.00,,---,0.00,VWS V14.01,2013-02-16 01:04:00,
2013-02-15 18:09:00,41.9,10.4,24.82,WNW,301,15.0,22.0,27,0.00,,---,0.00,VWS V14.01,2013-02-16 01:09:00,
2013-02-15 18:14:00,41.6,10.9,24.82,NW,314,12.0,22.0,28,0.00,,---,0.00,VWS V14.01,2013-02-16 01:14:00,
2013-02-15 18:19:00,41.5,10.8,24.82,NW,323,17.0,22.0,28,0.00,,---,0.00,VWS V14.01,2013-02-16 01:19:00,
2013-02-15 18:24:00,41.7,11.0,24.82,NW,312,23.0,24.0,28,0.00,,---,0.00,VWS V14.01,2013-02-16 01:24:00,
2013-02-15 18:29:00,41.7,11.0,24.83,NW,322,14.0,24.0,28,0.00,,---,0.00,VWS V14.01,2013-02-16 01:29:00,
2013-02-15 18:34:00,41.2,11.4,24.83,WNW,302,9.0,14.0,29,0.00,,---,0.00,VWS V14.01,2013-02-16 01:34:00,
2013-02-15 18:39:00,40.9,11.1,24.83,WNW,302,10.0,18.0,29,0.00,,---,0.00,VWS V14.01,2013-02-16 01:39:00,
2013-02-15 18:44:00,40.6,11.6,24.83,WNW,298,14.0,18.0,30,0.00,,---,0.00,VWS V14.01,2013-02-16 01:44:00,
2013-02-15 18:49:00,40.3,11.4,24.83,WNW,288,13.0,18.0,30,0.00,,---,0.00,VWS V14.01,2013-02-16 01:49:00,
2013-02-15 18:54:00,40.3,12.1,24.83,WNW,299,12.0,18.0,31,0.00,,---,0.00,VWS V14.01,2013-02-16 01:54:00,
2013-02-15 18:59:00,40.3,12.1,24.83,WNW,288,16.0,18.0,31,0.00,,---,0.00,VWS V14.01,2013-02-16 01:59:00,
2013-02-15 19:04:00,40.0,12.5,24.83,WNW,284,14.0,18.0,32,0.00,,---,0.00,VWS V14.01,2013-02-16 02:04:00,
2013-02-15 19:09:00,39.6,12.2,24.84,WNW,297,15.0,18.0,32,0.00,,---,0.00,VWS V14.01,2013-02-16 02:09:00,
2013-02-15 19:14:00,39.6,12.9,24.84,WNW,300,11.0,18.0,33,0.00,,---,0.00,VWS V14.01,2013-02-16 02:14:00,
2013-02-15 19:19:00,39.0,12.4,24.84,WNW,297,18.0,18.0,33,0.00,,---,0.00,VWS V14.01,2013-02-16 02:19:00,
2013-02-15 19:24:00,39.6,12.9,24.84,NW,307,12.0,20.0,33,0.00,,---,0.00,VWS V14.01,2013-02-16 02:24:00,
2013-02-15 19:29:00,39.3,12.6,24.84,NW,318,16.0,20.0,33,0.00,,---,0.00,VWS V14.01,2013-02-16 02:29:00,
2013-02-15 19:34:00,39.4,12.7,24.84,WNW,298,13.0,18.0,33,0.00,,---,0.00,VWS V14.01,2013-02-16 02:34:00,
2013-02-15 19:39:00,39.5,12.8,24.84,WNW,297,15.0,20.0,33,0.00,,---,0.00,VWS V14.01,2013-02-16 02:39:00,
2013-02-15 19:44:00,39.7,13.0,24.85,WNW,303,11.0,20.0,33,0.00,,---,0.00,VWS V14.01,2013-02-16 02:44:00,
2013-02-15 19:49:00,39.8,12.4,24.85,NW,316,12.0,21.0,32,0.00,,---,0.00,VWS V14.01,2013-02-16 02:49:00,
2013-02-15 19:54:00,39.7,13.0,24.85,NW,315,12.0,21.0,33,0.00,,---,0.00,VWS V14.01,2013-02-16 02:54:00,
2013-02-15 19:59:00,39.0,12.4,24.85,NW,320,10.0,21.0,33,0.00,,---,0.00,VWS V14.01,2013-02-16 02:59:00,
2013-02-15 20:04:00,38.6,12.7,24.85,NW,322,12.0,14.0,34,0.00,,---,0.00,VWS V14.01,2013-02-16 03:04:00,
2013-02-15 20:09:00,38.6,12.7,24.85,NW,314,10.0,14.0,34,0.00,,---,0.00,VWS V14.01,2013-02-16 03:09:00,
2013-02-15 20:14:00,38.3,13.1,24.85,NW,316,12.0,17.0,35,0.00,,---,0.00,VWS V14.01,2013-02-16 03:14:00,
2013-02-15 20:19:00,37.9,12.7,24.85,NW,311,8.0,17.0,35,0.00,,---,0.00,VWS V14.01,2013-02-16 03:19:00,
2013-02-15 20:24:00,37.6,12.4,24.85,NNW,328,9.0,17.0,35,0.00,,---,0.00,VWS V14.01,2013-02-16 03:24:00,
2013-02-15 20:29:00,37.1,12.6,24.85,NW,315,8.0,17.0,36,0.00,,---,0.00,VWS V14.01,2013-02-16 03:29:00,
2013-02-15 20:34:00,36.9,13.1,24.85,NW,323,6.0,11.0,37,0.00,,---,0.00,VWS V14.01,2013-02-16 03:34:00,
2013-02-15 20:39:00,36.7,12.9,24.86,WNW,297,8.0,11.0,37,0.00,,---,0.00,VWS V14.01,2013-02-16 03:39:00,
2013-02-15 20:44:00,36.9,13.1,24.86,NW,326,3.0,11.0,37,0.00,,---,0.00,VWS V14.01,2013-02-16 03:44:00,
2013-02-15 20:49:00,37.0,13.2,24.86,NW,304,8.0,12.0,37,0.00,,---,0.00,VWS V14.01,2013-02-16 03:49:00,
2013-02-15 20:54:00,36.5,12.7,24.86,NW,314,7.0,12.0,37,0.00,,---,0.00,VWS V14.01,2013-02-16 03:54:00,
2013-02-15 20:59:00,36.9,13.1,24.86,WNW,301,9.0,13.0,37,0.00,,---,0.00,VWS V14.01,2013-02-16 03:59:00,
2013-02-15 21:04:00,36.9,13.1,24.85,WNW,301,11.0,14.0,37,0.00,,---,0.00,VWS V14.01,2013-02-16 04:04:00,
2013-02-15 21:09:00,37.2,13.3,24.86,NW,317,9.0,14.0,37,0.00,,---,0.00,VWS V14.01,2013-02-16 04:09:00,
2013-02-15 21:14:00,37.0,13.8,24.85,NW,313,7.0,15.0,38,0.00,,---,0.00,VWS V14.01,2013-02-16 04:14:00,
2013-02-15 21:19:00,36.9,13.1,24.85,NW,305,6.0,15.0,37,0.00,,---,0.00,VWS V14.01,2013-02-16 04:19:00,
2013-02-15 21:24:00,36.4,13.2,24.86,WNW,291,4.0,15.0,38,0.00,,---,0.00,VWS V14.01,2013-02-16 04:24:00,
2013-02-15 21:29:00,36.1,13.0,24.86,WNW,302,4.0,15.0,38,0.00,,---,0.00,VWS V14.01,2013-02-16 04:29:00,
2013-02-15 21:34:00,35.9,13.4,24.86,WNW,293,3.0,4.0,39,0.00,,---,0.00,VWS V14.01,2013-02-16 04:34:00,
2013-02-15 21:39:00,35.9,13.4,24.86,NW,312,0.0,4.0,39,0.00,,---,0.00,VWS V14.01,2013-02-16 04:39:00,
2013-02-15 21:44:00,35.7,13.2,24.86,NW,311,3.0,4.0,39,0.00,,---,0.00,VWS V14.01,2013-02-16 04:44:00,
2013-02-15 21:49:00,35.4,12.9,24.86,NW,326,3.0,9.0,39,0.00,,---,0.00,VWS V14.01,2013-02-16 04:49:00,
2013-02-15 21:54:00,35.1,13.2,24.87,NNW,328,1.0,9.0,40,0.00,,---,0.00,VWS V14.01,2013-02-16 04:54:00,
2013-02-15 21:59:00,35.1,13.2,24.87,North,3,0.0,9.0,40,0.00,,---,0.00,VWS V14.01,2013-02-16 04:59:00,
2013-02-15 22:00:00,35.1,13.2,24.87,NNW,339,0.0,0.0,40,0.00,,---,0.00,VWS V14.01,2013-02-16 05:00:00,
2013-02-15 22:05:00,35.1,13.8,24.87,North,359,0.0,0.0,41,0.00,,---,0.00,VWS V14.01,2013-02-16 05:05:00,
2013-02-15 22:10:00,35.2,13.9,24.87,NNE,16,0.0,1.0,41,0.00,,---,0.00,VWS V14.01,2013-02-16 05:10:00,
2013-02-15 22:15:00,35.2,13.3,24.87,North,356,0.0,2.0,40,0.00,,---,0.00,VWS V14.01,2013-02-16 05:15:00,
2013-02-15 22:20:00,35.4,14.1,24.87,NNW,336,0.0,2.0,41,0.00,,---,0.00,VWS V14.01,2013-02-16 05:20:00,
2013-02-15 22:22:00,35.4,13.5,24.87,NNW,335,0.0,2.0,40,0.00,,---,0.00,VWS V14.01,2013-02-16 05:22:00,
2013-02-15 22:27:00,35.3,14.0,24.88,WNW,290,0.0,2.0,41,0.00,,---,0.00,VWS V14.01,2013-02-16 05:27:00,
2013-02-15 22:32:00,35.5,13.6,24.87,WNW,297,4.0,5.0,40,0.00,,---,0.00,VWS V14.01,2013-02-16 05:32:00,
2013-02-15 22:37:00,35.4,13.5,24.88,WNW,297,4.0,6.0,40,0.00,,---,0.00,VWS V14.01,2013-02-16 05:37:00,
2013-02-15 22:42:00,34.8,12.9,24.88,WNW,297,6.0,7.0,40,0.00,,---,0.00,VWS V14.01,2013-02-16 05:42:00,
2013-02-15 22:47:00,34.7,12.9,24.88,WNW,297,5.0,9.0,40,0.00,,---,0.00,VWS V14.01,2013-02-16 05:47:00,
2013-02-15 22:52:00,35.2,13.3,24.88,WNW,298,6.0,11.0,40,0.00,,---,0.00,VWS V14.01,2013-02-16 05:52:00,
2013-02-15 22:57:00,35.0,13.1,24.88,West,277,3.0,11.0,40,0.00,,---,0.00,VWS V14.01,2013-02-16 05:57:00,
2013-02-15 23:02:00,35.1,13.2,24.88,East,98,0.0,3.0,40,0.00,,---,0.00,VWS V14.01,2013-02-16 06:02:00,
2013-02-15 23:07:00,34.7,12.9,24.88,ESE,111,0.0,3.0,40,0.00,,---,0.00,VWS V14.01,2013-02-16 06:07:00,
2013-02-15 23:12:00,34.1,12.9,24.88,SW,224,0.0,3.0,41,0.00,,---,0.00,VWS V14.01,2013-02-16 06:12:00,
2013-02-15 23:17:00,34.0,13.3,24.88,WNW,301,0.0,5.0,42,0.00,,---,0.00,VWS V14.01,2013-02-16 06:17:00,
2013-02-15 23:22:00,34.1,13.4,24.88,WNW,284,4.0,7.0,42,0.00,,---,0.00,VWS V14.01,2013-02-16 06:22:00,
2013-02-15 23:27:00,34.1,13.4,24.88,West,277,2.0,7.0,42,0.00,,---,0.00,VWS V14.01,2013-02-16 06:27:00,
2013-02-15 23:32:00,34.0,13.3,24.88,WSW,255,4.0,5.0,42,0.00,,---,0.00,VWS V14.01,2013-02-16 06:32:00,
2013-02-15 23:37:00,34.2,14.1,24.88,WSW,254,5.0,6.0,43,0.00,,---,0.00,VWS V14.01,2013-02-16 06:37:00,
2013-02-15 23:42:00,34.9,14.1,24.88,SW,219,3.0,6.0,42,0.00,,---,0.00,VWS V14.01,2013-02-16 06:42:00,
2013-02-15 23:47:00,34.8,13.5,24.88,WSW,250,2.0,6.0,41,0.00,,---,0.00,VWS V14.01,2013-02-16 06:47:00,
2013-02-15 23:52:00,34.4,13.1,24.88,SW,233,0.0,6.0,41,0.00,,---,0.00,VWS V14.01,2013-02-16 06:52:00,
2013-02-15 23:57:00,34.8,13.5,24.88,SW,236,3.0,6.0,41,0.00,,---,0.00,VWS V14.01,2013-02-16 06:57:00,